CSN2561 ZSAM-ZBAD

Flight info

Callsign CSN2561
Flight time 2h 26m
Altitude 36100
Route BUPDU W643 FOC W644 AKAVO A470 EMRID V143 SAPIN A470 DPX A593 DALIM W157 AVBOX
Aircraft B38M/M-SDE1FGHILORVWXY/HB1

Departure

Time 2026-05-05 12:47
Airport Xiamen Gaoqi International Airport (ZSAM)

Arrival

Time 2026-05-05 15:13
Airport Beijing Daxing International Airport (ZBAD)
Time Latitude Longitude Altitude Speed Heading
2026-05-05 12:37 24.53866 118.12688 73 ft 0 kts 142°
2026-05-05 12:37 24.53869 118.12684 73 ft 2 kts 142°
2026-05-05 12:38 24.53882 118.12674 73 ft 2 kts 142°
2026-05-05 12:38 24.53893 118.12664 73 ft 2 kts 142°
2026-05-05 12:38 24.53906 118.12655 73 ft 2 kts 161°
2026-05-05 12:38 24.53921 118.12652 73 ft 2 kts 180°
2026-05-05 12:39 24.53936 118.12654 73 ft 2 kts 200°
2026-05-05 12:39 24.53949 118.12662 73 ft 2 kts 220°
2026-05-05 12:39 24.53955 118.12669 73 ft 1 kts 232°
2026-05-05 12:39 24.53958 118.12674 73 ft 0 kts 233°
2026-05-05 12:41 24.53956 118.12671 73 ft 0 kts 233°
2026-05-05 12:41 24.53956 118.12670 73 ft 0 kts 233°
2026-05-05 12:41 24.53937 118.12642 73 ft 8 kts 233°
2026-05-05 12:42 24.53922 118.12620 73 ft 6 kts 231°
2026-05-05 12:42 24.53946 118.12551 73 ft 17 kts 317°
2026-05-05 12:42 24.53950 118.12406 73 ft 28 kts 231°
2026-05-05 12:42 24.53818 118.12221 73 ft 33 kts 232°
2026-05-05 12:43 24.53672 118.12017 73 ft 36 kts 232°
2026-05-05 12:43 24.53505 118.11782 73 ft 39 kts 232°
2026-05-05 12:43 24.53404 118.11563 73 ft 19 kts 286°
2026-05-05 12:43 24.53406 118.11556 73 ft 0 kts 286°
2026-05-05 12:44 24.53416 118.11520 73 ft 9 kts 291°
2026-05-05 12:44 24.53489 118.11469 74 ft 15 kts 22°
2026-05-05 12:44 24.53526 118.11517 73 ft 0 kts 52°
2026-05-05 12:46 24.53527 118.11520 73 ft 2 kts 52°
2026-05-05 12:47 24.53674 118.11726 74 ft 75 kts 52°
2026-05-05 12:47 24.54165 118.12409 73 ft 147 kts 51°
2026-05-05 12:47 24.54900 118.13380 489 ft 172 kts 49°
2026-05-05 12:47 24.55649 118.14344 1405 ft 165 kts 49°
2026-05-05 12:48 24.56357 118.15309 2028 ft 167 kts 52°
2026-05-05 12:48 24.57089 118.16379 2380 ft 181 kts 51°
2026-05-05 12:48 24.57888 118.17515 2731 ft 198 kts 51°
2026-05-05 12:48 24.58770 118.18743 3211 ft 209 kts 51°
2026-05-05 12:49 24.59687 118.20024 3698 ft 220 kts 51°
2026-05-05 12:49 24.60656 118.21393 4174 ft 233 kts 53°
2026-05-05 12:49 24.61443 118.22988 4666 ft 245 kts 72°
2026-05-05 12:49 24.61625 118.24893 5163 ft 260 kts 89°
2026-05-05 12:50 24.61532 118.26920 5659 ft 271 kts 90°
2026-05-05 12:50 24.61458 118.29022 6155 ft 282 kts 89°
2026-05-05 12:50 24.61415 118.31183 6645 ft 292 kts 89°
2026-05-05 12:50 24.61393 118.33453 7148 ft 303 kts 90°
2026-05-05 12:51 24.61373 118.35821 7656 ft 313 kts 90°
2026-05-05 12:51 24.61338 118.38226 8147 ft 323 kts 91°
2026-05-05 12:51 24.61290 118.40723 8636 ft 332 kts 91°
2026-05-05 12:51 24.61237 118.43298 9129 ft 341 kts 91°
2026-05-05 12:52 24.61185 118.45916 9614 ft 349 kts 92°
2026-05-05 12:52 24.61132 118.48604 10102 ft 357 kts 92°
2026-05-05 12:52 24.61077 118.51356 10552 ft 365 kts 92°
2026-05-05 12:52 24.61022 118.54179 10915 ft 376 kts 92°
2026-05-05 12:53 24.60963 118.57100 11283 ft 387 kts 91°
2026-05-05 12:53 24.60903 118.60061 11639 ft 397 kts 92°
2026-05-05 12:53 24.60846 118.63151 12000 ft 406 kts 90°
2026-05-05 12:53 24.60998 118.66258 12360 ft 415 kts 82°
2026-05-05 12:54 24.63224 118.72123 13075 ft 423 kts 49°
2026-05-05 12:54 24.65222 118.74459 13435 ft 426 kts 38°
2026-05-05 12:54 24.67557 118.76527 13793 ft 428 kts 31°
2026-05-05 12:55 24.70042 118.78311 14147 ft 432 kts 27°
2026-05-05 12:55 24.72668 118.79986 14501 ft 434 kts 25°
2026-05-05 12:55 24.75337 118.81611 14864 ft 438 kts 24°
2026-05-05 12:55 24.77996 118.83231 15219 ft 439 kts 25°
2026-05-05 12:56 24.80682 118.84895 15577 ft 443 kts 25°
2026-05-05 12:56 24.83380 118.86595 15920 ft 447 kts 26°
2026-05-05 12:56 24.86052 118.88300 16272 ft 449 kts 26°
2026-05-05 12:56 24.88781 118.90057 16628 ft 453 kts 26°
2026-05-05 12:57 24.91518 118.91830 16973 ft 456 kts 26°
2026-05-05 12:57 24.94258 118.93613 17321 ft 459 kts 27°
2026-05-05 12:57 24.96996 118.95400 17664 ft 461 kts 26°
2026-05-05 12:57 24.99763 118.97202 18019 ft 463 kts 26°
2026-05-05 12:58 25.02585 118.99037 18366 ft 467 kts 26°
2026-05-05 12:58 25.05386 119.00828 18717 ft 470 kts 25°
2026-05-05 12:58 25.08277 119.02573 19070 ft 471 kts 24°
2026-05-05 12:58 25.11190 119.04262 19425 ft 473 kts 22°
2026-05-05 12:59 25.14109 119.05930 19764 ft 475 kts 23°
2026-05-05 12:59 25.17067 119.07619 20115 ft 478 kts 23°
2026-05-05 12:59 25.20002 119.09299 20454 ft 481 kts 23°
2026-05-05 13:00 25.25970 119.12739 21154 ft 485 kts 22°
2026-05-05 13:00 25.28986 119.14484 21500 ft 487 kts 22°
2026-05-05 13:01 25.38038 119.19765 22537 ft 493 kts 22°
2026-05-05 13:01 25.41107 119.21560 22887 ft 495 kts 22°
2026-05-05 13:01 25.44130 119.23328 23236 ft 497 kts 22°
2026-05-05 13:01 25.47203 119.25138 23595 ft 499 kts 23°
2026-05-05 13:02 25.50206 119.27106 23950 ft 504 kts 27°
2026-05-05 13:02 25.53103 119.29304 24318 ft 509 kts 32°
2026-05-05 13:02 25.55876 119.31770 24687 ft 513 kts 37°
2026-05-05 13:02 25.58513 119.34459 25056 ft 516 kts 40°
2026-05-05 13:03 25.61086 119.37326 25431 ft 519 kts 43°
2026-05-05 13:03 25.63572 119.40238 25801 ft 521 kts 44°
2026-05-05 13:03 25.66018 119.43170 26168 ft 522 kts 44°
2026-05-05 13:03 25.68475 119.46122 26537 ft 523 kts 45°
2026-05-05 13:04 25.70955 119.49117 26911 ft 524 kts 44°
2026-05-05 13:04 25.73430 119.52101 27281 ft 525 kts 44°
2026-05-05 13:04 25.75937 119.55044 27652 ft 525 kts 42°
2026-05-05 13:04 25.78632 119.57779 28020 ft 522 kts 34°
2026-05-05 13:05 25.81564 119.60070 28388 ft 518 kts 26°
2026-05-05 13:05 25.84704 119.62043 28758 ft 516 kts 22°
2026-05-05 13:05 25.87929 119.63824 29142 ft 515 kts 20°
2026-05-05 13:05 25.91166 119.65524 29529 ft 515 kts 20°
2026-05-05 13:06 25.94417 119.67213 29925 ft 514 kts 19°
2026-05-05 13:06 25.97630 119.68889 30314 ft 514 kts 20°
2026-05-05 13:06 26.00878 119.70615 30708 ft 513 kts 20°
2026-05-05 13:06 26.04088 119.72313 31096 ft 511 kts 18°
2026-05-05 13:07 26.07393 119.73757 31489 ft 505 kts 11°
2026-05-05 13:07 26.10737 119.74821 31879 ft 497 kts
2026-05-05 13:07 26.14145 119.75509 32278 ft 488 kts 359°
2026-05-05 13:07 26.17476 119.75809 32668 ft 479 kts 352°
2026-05-05 13:08 26.20784 119.75735 32988 ft 470 kts 345°
2026-05-05 13:08 26.24048 119.75311 33263 ft 464 kts 341°
2026-05-05 13:08 26.27257 119.74725 33531 ft 463 kts 340°
2026-05-05 13:08 26.30477 119.74129 33801 ft 464 kts 341°
2026-05-05 13:09 26.33700 119.73608 34075 ft 467 kts 342°
2026-05-05 13:09 26.36932 119.73181 34343 ft 469 kts 343°
2026-05-05 13:09 26.40182 119.72832 34613 ft 470 kts 344°
2026-05-05 13:09 26.43458 119.72543 34885 ft 471 kts 345°
2026-05-05 13:10 26.46706 119.72297 35154 ft 471 kts 346°
2026-05-05 13:10 26.50034 119.72147 35431 ft 475 kts 348°
2026-05-05 13:10 26.53341 119.72150 35701 ft 477 kts 350°
2026-05-05 13:10 26.56658 119.72243 35976 ft 477 kts 351°
2026-05-05 13:11 26.59958 119.72365 36214 ft 476 kts 351°
2026-05-05 13:11 26.63282 119.72485 36258 ft 478 kts 351°
2026-05-05 13:11 26.69995 119.72700 36264 ft 483 kts 351°
2026-05-05 13:12 26.76741 119.72881 36267 ft 486 kts 350°
2026-05-05 13:12 26.83525 119.73043 36269 ft 483 kts 350°
2026-05-05 13:13 26.90250 119.73194 36270 ft 487 kts 350°
2026-05-05 13:13 26.97021 119.73143 36276 ft 475 kts 343°
2026-05-05 13:14 27.00175 119.72553 36270 ft 453 kts 331°
2026-05-05 13:14 27.03057 119.71313 36276 ft 436 kts 322°
2026-05-05 13:14 27.08313 119.67981 36259 ft 431 kts 316°
2026-05-05 13:15 27.13395 119.64410 36259 ft 431 kts 316°
2026-05-05 13:15 27.18491 119.60838 36256 ft 431 kts 316°
2026-05-05 13:16 27.23675 119.57405 36247 ft 440 kts 321°
2026-05-05 13:16 27.26617 119.56110 36253 ft 459 kts 333°
2026-05-05 13:16 27.29807 119.55507 36253 ft 475 kts 343°
2026-05-05 13:17 27.36529 119.55292 36250 ft 484 kts 348°
2026-05-05 13:17 27.43330 119.55417 36249 ft 486 kts 349°
2026-05-05 13:18 27.50130 119.55555 36258 ft 485 kts 349°
2026-05-05 13:18 27.56871 119.55653 36261 ft 486 kts 348°
2026-05-05 13:19 27.63667 119.55719 36260 ft 485 kts 348°
2026-05-05 13:19 27.70409 119.55763 36256 ft 484 kts 348°
2026-05-05 13:20 27.77165 119.55796 36248 ft 485 kts 347°
2026-05-05 13:20 27.83926 119.55835 36258 ft 487 kts 348°
2026-05-05 13:21 27.90724 119.55875 36261 ft 486 kts 347°
2026-05-05 13:21 27.97507 119.55936 36256 ft 487 kts 348°
2026-05-05 13:22 28.04270 119.56053 36256 ft 486 kts 348°
2026-05-05 13:22 28.11044 119.56177 36254 ft 486 kts 348°
2026-05-05 13:23 28.17836 119.56461 36244 ft 489 kts 350°
2026-05-05 13:23 28.24692 119.56886 36239 ft 489 kts 351°
2026-05-05 13:24 28.31483 119.57312 36237 ft 491 kts 350°
2026-05-05 13:24 28.38326 119.57711 36231 ft 489 kts 350°
2026-05-05 13:25 28.45151 119.58101 36219 ft 487 kts 350°
2026-05-05 13:25 28.51929 119.58502 36216 ft 489 kts 350°
2026-05-05 13:26 28.58709 119.58917 36213 ft 488 kts 351°
2026-05-05 13:26 28.65567 119.59340 36221 ft 491 kts 350°
2026-05-05 13:27 28.72305 119.59766 36226 ft 488 kts 351°
2026-05-05 13:27 28.79122 119.60192 36221 ft 487 kts 350°
2026-05-05 13:28 28.85924 119.60614 36209 ft 489 kts 350°
2026-05-05 13:28 28.92705 119.61036 36193 ft 487 kts 350°
2026-05-05 13:29 28.99469 119.61462 36177 ft 485 kts 350°
2026-05-05 13:29 29.06222 119.61877 36170 ft 487 kts 350°
2026-05-05 13:30 29.13049 119.62296 36173 ft 489 kts 351°
2026-05-05 13:30 29.19852 119.62710 36173 ft 488 kts 351°
2026-05-05 13:31 29.26658 119.63132 36174 ft 486 kts 351°
2026-05-05 13:31 29.33439 119.63548 36179 ft 485 kts 351°
2026-05-05 13:32 29.40201 119.63963 36188 ft 485 kts 351°
2026-05-05 13:32 29.47001 119.64372 36191 ft 488 kts 351°
2026-05-05 13:33 29.53794 119.64558 36195 ft 476 kts 345°
2026-05-05 13:33 29.60219 119.63576 36195 ft 456 kts 335°
2026-05-05 13:34 29.66360 119.61873 36193 ft 453 kts 332°
2026-05-05 13:34 29.72483 119.60005 36193 ft 454 kts 333°
2026-05-05 13:35 29.78657 119.58179 36191 ft 452 kts 333°
2026-05-05 13:35 29.84798 119.56408 36190 ft 456 kts 333°
2026-05-05 13:36 29.90977 119.54645 36189 ft 455 kts 334°
2026-05-05 13:36 29.97170 119.52890 36191 ft 451 kts 334°
2026-05-05 13:37 30.03255 119.51155 36191 ft 454 kts 333°
2026-05-05 13:37 30.09418 119.49383 36187 ft 453 kts 334°
2026-05-05 13:38 30.15568 119.47629 36187 ft 453 kts 334°
2026-05-05 13:38 30.21703 119.45872 36181 ft 454 kts 334°
2026-05-05 13:39 30.27890 119.44093 36181 ft 456 kts 334°
2026-05-05 13:39 30.34035 119.42335 36186 ft 453 kts 334°
2026-05-05 13:40 30.40190 119.40565 36185 ft 453 kts 334°
2026-05-05 13:40 30.46345 119.38789 36185 ft 454 kts 334°
2026-05-05 13:41 30.52515 119.37008 36185 ft 455 kts 334°
2026-05-05 13:41 30.58676 119.35236 36181 ft 454 kts 334°
2026-05-05 13:42 30.64827 119.33457 36178 ft 454 kts 334°
2026-05-05 13:42 30.70976 119.31678 36163 ft 451 kts 334°
2026-05-05 13:43 30.77080 119.29916 36162 ft 452 kts 334°
2026-05-05 13:43 30.83194 119.28140 36152 ft 453 kts 334°
2026-05-05 13:44 30.89350 119.26352 36146 ft 452 kts 334°
2026-05-05 13:44 30.95502 119.24559 36146 ft 455 kts 334°
2026-05-05 13:45 31.01609 119.22783 36139 ft 450 kts 334°
2026-05-05 13:45 31.07715 119.21004 36134 ft 454 kts 334°
2026-05-05 13:46 31.13906 119.19192 36144 ft 454 kts 334°
2026-05-05 13:46 31.20023 119.17408 36136 ft 450 kts 334°
2026-05-05 13:47 31.26152 119.15611 36129 ft 452 kts 335°
2026-05-05 13:47 31.32269 119.13818 36131 ft 451 kts 335°
2026-05-05 13:48 31.38423 119.12010 36135 ft 452 kts 335°
2026-05-05 13:48 31.44504 119.10224 36125 ft 451 kts 335°
2026-05-05 13:49 31.50613 119.08424 36125 ft 451 kts 335°
2026-05-05 13:49 31.56678 119.06638 36125 ft 449 kts 335°
2026-05-05 13:50 31.62776 119.04785 36122 ft 451 kts 334°
2026-05-05 13:50 31.68734 119.02615 36125 ft 442 kts 329°
2026-05-05 13:51 31.74438 119.00039 36121 ft 438 kts 328°
2026-05-05 13:51 31.80110 118.97385 35899 ft 437 kts 328°
2026-05-05 13:52 31.82960 118.96071 36263 ft 437 kts 328°
2026-05-05 13:52 31.85820 118.94759 35999 ft 440 kts 329°
2026-05-05 13:52 31.88709 118.93447 36122 ft 440 kts 329°
2026-05-05 13:52 31.91555 118.92162 36113 ft 440 kts 329°
2026-05-05 13:53 31.97357 118.89540 36099 ft 445 kts 329°
2026-05-05 13:53 32.03109 118.86951 36079 ft 441 kts 329°
2026-05-05 13:54 32.08947 118.84327 36086 ft 445 kts 330°
2026-05-05 13:54 32.14731 118.81724 36085 ft 444 kts 330°
2026-05-05 13:55 32.20563 118.79092 36084 ft 444 kts 330°
2026-05-05 13:55 32.26340 118.76489 36084 ft 446 kts 330°
2026-05-05 13:56 32.32169 118.73852 36054 ft 445 kts 331°
2026-05-05 13:56 32.37981 118.71218 36086 ft 444 kts 331°
2026-05-05 13:57 32.43777 118.68586 36087 ft 445 kts 331°
2026-05-05 13:57 32.49569 118.65956 36090 ft 444 kts 331°
2026-05-05 13:58 32.55358 118.63326 36087 ft 445 kts 331°
2026-05-05 13:58 32.61170 118.60673 36090 ft 445 kts 331°
2026-05-05 13:59 32.69933 118.56747 36093 ft 449 kts 334°
2026-05-05 14:00 32.77982 118.53863 36097 ft 451 kts 337°
2026-05-05 14:00 32.85068 118.51436 36094 ft 450 kts 337°
2026-05-05 14:01 32.91069 118.49339 36094 ft 452 kts 336°
2026-05-05 14:01 32.97187 118.47168 36089 ft 453 kts 337°
2026-05-05 14:02 33.03207 118.45016 36092 ft 453 kts 337°
2026-05-05 14:02 33.09231 118.42860 36094 ft 452 kts 337°
2026-05-05 14:03 33.15313 118.40675 36087 ft 451 kts 337°
2026-05-05 14:03 33.21325 118.38510 36087 ft 451 kts 337°
2026-05-05 14:04 33.27325 118.36345 36089 ft 450 kts 337°
2026-05-05 14:04 33.33384 118.34159 36093 ft 450 kts 337°
2026-05-05 14:05 33.39345 118.32008 36087 ft 449 kts 337°
2026-05-05 14:05 33.45371 118.29828 36080 ft 450 kts 337°
2026-05-05 14:06 33.51386 118.27653 36079 ft 448 kts 337°
2026-05-05 14:06 33.57362 118.25490 36075 ft 446 kts 337°
2026-05-05 14:07 33.63342 118.23315 36072 ft 447 kts 337°
2026-05-05 14:07 33.69330 118.21133 36079 ft 448 kts 338°
2026-05-05 14:08 33.75280 118.18968 36076 ft 448 kts 338°
2026-05-05 14:08 33.81251 118.16791 36074 ft 449 kts 337°
2026-05-05 14:09 33.87239 118.14613 36081 ft 446 kts 338°
2026-05-05 14:09 33.93183 118.12455 36074 ft 447 kts 338°
2026-05-05 14:10 33.99235 118.10254 36080 ft 446 kts 338°
2026-05-05 14:10 34.05187 118.08089 36071 ft 446 kts 338°
2026-05-05 14:11 34.11157 118.05919 36075 ft 447 kts 338°
2026-05-05 14:11 34.17103 118.03757 36075 ft 446 kts 338°
2026-05-05 14:12 34.23056 118.01592 36069 ft 445 kts 339°
2026-05-05 14:12 34.28976 117.99438 36077 ft 445 kts 339°
2026-05-05 14:13 34.34946 117.97295 36076 ft 445 kts 339°
2026-05-05 14:13 34.40895 117.95179 36074 ft 446 kts 339°
2026-05-05 14:14 34.46900 117.93039 36079 ft 447 kts 339°
2026-05-05 14:14 34.52919 117.90889 36082 ft 446 kts 339°
2026-05-05 14:15 34.58876 117.88757 36081 ft 446 kts 339°
2026-05-05 14:15 34.64890 117.86598 36083 ft 446 kts 339°
2026-05-05 14:16 34.70847 117.84456 36078 ft 445 kts 339°
2026-05-05 14:16 34.76810 117.82311 36087 ft 445 kts 339°
2026-05-05 14:17 34.82801 117.80151 36088 ft 447 kts 339°
2026-05-05 14:17 34.88765 117.77972 36100 ft 446 kts 339°
2026-05-05 14:18 34.94741 117.75782 36106 ft 447 kts 339°
2026-05-05 14:18 35.00700 117.73598 36088 ft 444 kts 339°
2026-05-05 14:19 35.06677 117.71404 36085 ft 445 kts 339°
2026-05-05 14:19 35.12639 117.69218 36089 ft 444 kts 339°
2026-05-05 14:20 35.18610 117.67025 36090 ft 445 kts 339°
2026-05-05 14:20 35.24530 117.64848 36088 ft 445 kts 339°
2026-05-05 14:21 35.30487 117.62653 36091 ft 444 kts 340°
2026-05-05 14:21 35.36420 117.60466 36081 ft 443 kts 340°
2026-05-05 14:22 35.42367 117.58271 36076 ft 443 kts 339°
2026-05-05 14:22 35.48331 117.56067 36078 ft 442 kts 340°
2026-05-05 14:23 35.54212 117.53888 36071 ft 442 kts 340°
2026-05-05 14:23 35.60120 117.51695 36086 ft 443 kts 340°
2026-05-05 14:24 35.66038 117.49494 36073 ft 443 kts 340°
2026-05-05 14:24 35.71959 117.47289 36074 ft 443 kts 340°
2026-05-05 14:25 35.77852 117.45093 36074 ft 442 kts 340°
2026-05-05 14:25 35.83790 117.42878 36081 ft 442 kts 340°
2026-05-05 14:26 35.89665 117.40685 36068 ft 441 kts 340°
2026-05-05 14:26 35.95580 117.38468 36062 ft 442 kts 340°
2026-05-05 14:27 36.01483 117.36253 36065 ft 442 kts 340°
2026-05-05 14:27 36.07404 117.34059 36065 ft 442 kts 340°
2026-05-05 14:28 36.13334 117.31871 36062 ft 442 kts 340°
2026-05-05 14:28 36.19194 117.29710 36058 ft 441 kts 340°
2026-05-05 14:29 36.25096 117.27523 36054 ft 441 kts 340°
2026-05-05 14:29 36.30974 117.25339 36056 ft 440 kts 340°
2026-05-05 14:30 36.36860 117.23149 36060 ft 441 kts 340°
2026-05-05 14:30 36.42701 117.20895 36062 ft 439 kts 337°
2026-05-05 14:31 36.48407 117.18094 36061 ft 438 kts 334°
2026-05-05 14:31 36.54005 117.15098 36060 ft 438 kts 334°
2026-05-05 14:32 36.59497 117.12171 36043 ft 418 kts 334°
2026-05-05 14:32 36.62188 117.10750 35853 ft 420 kts 334°
2026-05-05 14:32 36.64903 117.09319 35560 ft 421 kts 334°
2026-05-05 14:33 36.67580 117.07911 35257 ft 420 kts 334°
2026-05-05 14:33 36.70284 117.06490 34954 ft 420 kts 334°
2026-05-05 14:33 36.73008 117.05061 34653 ft 421 kts 335°
2026-05-05 14:33 36.75702 117.03649 34365 ft 423 kts 335°
2026-05-05 14:34 36.78448 117.02210 34038 ft 423 kts 335°
2026-05-05 14:34 36.81139 117.00800 33675 ft 423 kts 335°
2026-05-05 14:34 36.83854 116.99377 33307 ft 422 kts 335°
2026-05-05 14:34 36.86568 116.97953 32941 ft 422 kts 335°
2026-05-05 14:35 36.89308 116.96514 32574 ft 424 kts 335°
2026-05-05 14:35 36.92021 116.95087 32210 ft 424 kts 335°
2026-05-05 14:35 36.94727 116.93664 31844 ft 424 kts 336°
2026-05-05 14:35 36.97433 116.92239 31481 ft 426 kts 336°
2026-05-05 14:36 37.00198 116.90781 31111 ft 426 kts 336°
2026-05-05 14:36 37.02911 116.89352 30753 ft 427 kts 336°
2026-05-05 14:36 37.05657 116.87903 30392 ft 427 kts 336°
2026-05-05 14:36 37.08392 116.86459 30039 ft 428 kts 336°
2026-05-05 14:37 37.11138 116.85008 29683 ft 429 kts 336°
2026-05-05 14:37 37.13880 116.83556 29343 ft 431 kts 336°
2026-05-05 14:37 37.16637 116.82097 28981 ft 431 kts 336°
2026-05-05 14:37 37.19406 116.80630 28624 ft 433 kts 336°
2026-05-05 14:38 37.22216 116.79208 28276 ft 435 kts 339°
2026-05-05 14:38 37.25098 116.77959 27920 ft 436 kts 342°
2026-05-05 14:38 37.27977 116.76842 27565 ft 437 kts 343°
2026-05-05 14:38 37.30927 116.75754 27201 ft 438 kts 343°
2026-05-05 14:39 37.33850 116.74691 26848 ft 439 kts 343°
2026-05-05 14:39 37.36767 116.73629 26494 ft 441 kts 343°
2026-05-05 14:39 37.39738 116.72538 26134 ft 442 kts 343°
2026-05-05 14:39 37.42672 116.71452 25777 ft 440 kts 343°
2026-05-05 14:40 37.45608 116.70356 25420 ft 437 kts 343°
2026-05-05 14:40 37.48497 116.69271 25068 ft 435 kts 343°
2026-05-05 14:40 37.51381 116.68183 24706 ft 434 kts 343°
2026-05-05 14:40 37.54278 116.67087 24336 ft 432 kts 343°
2026-05-05 14:41 37.57140 116.66000 23973 ft 430 kts 343°
2026-05-05 14:41 37.60008 116.64910 23606 ft 428 kts 343°
2026-05-05 14:41 37.62851 116.63828 23242 ft 426 kts 343°
2026-05-05 14:41 37.65688 116.62746 22878 ft 424 kts 343°
2026-05-05 14:42 37.68492 116.61677 22516 ft 422 kts 343°
2026-05-05 14:42 37.71304 116.60603 22151 ft 419 kts 343°
2026-05-05 14:42 37.74095 116.59537 21790 ft 417 kts 343°
2026-05-05 14:42 37.76854 116.58482 21431 ft 415 kts 343°
2026-05-05 14:43 37.79624 116.57422 21071 ft 413 kts 343°
2026-05-05 14:43 37.82355 116.56375 20713 ft 411 kts 343°
2026-05-05 14:43 37.85092 116.55326 20353 ft 409 kts 343°
2026-05-05 14:43 37.87791 116.54291 19997 ft 406 kts 343°
2026-05-05 14:44 37.90509 116.53247 19623 ft 404 kts 343°
2026-05-05 14:44 37.93165 116.52200 19245 ft 402 kts 342°
2026-05-05 14:44 37.95797 116.50974 18860 ft 399 kts 338°
2026-05-05 14:44 37.98261 116.49477 18485 ft 397 kts 332°
2026-05-05 14:45 38.00626 116.47684 18105 ft 396 kts 328°
2026-05-05 14:45 38.02924 116.45710 17718 ft 393 kts 326°
2026-05-05 14:45 38.05121 116.43705 17338 ft 390 kts 324°
2026-05-05 14:45 38.07293 116.41672 16957 ft 387 kts 324°
2026-05-05 14:46 38.09444 116.39652 16577 ft 384 kts 324°
2026-05-05 14:46 38.11612 116.37627 16193 ft 382 kts 325°
2026-05-05 14:46 38.13747 116.35646 15814 ft 379 kts 325°
2026-05-05 14:46 38.15865 116.33690 15440 ft 377 kts 324°
2026-05-05 14:47 38.17967 116.31753 15066 ft 374 kts 324°
2026-05-05 14:47 38.20090 116.29799 14687 ft 371 kts 324°
2026-05-05 14:47 38.22160 116.27921 14317 ft 368 kts 327°
2026-05-05 14:47 38.24379 116.26328 13938 ft 365 kts 337°
2026-05-05 14:48 38.26853 116.25533 13559 ft 364 kts 354°
2026-05-05 14:48 38.29356 116.25685 13188 ft 366 kts
2026-05-05 14:48 38.31843 116.26389 12810 ft 362 kts 11°
2026-05-05 14:48 38.34244 116.27200 12436 ft 354 kts 12°
2026-05-05 14:49 38.36623 116.28035 12061 ft 354 kts 12°
2026-05-05 14:49 38.39023 116.28879 11686 ft 354 kts 12°
2026-05-05 14:49 38.41396 116.29710 11314 ft 352 kts 12°
2026-05-05 14:49 38.43746 116.30526 10943 ft 351 kts 12°
2026-05-05 14:50 38.46100 116.31340 10573 ft 350 kts 12°
2026-05-05 14:50 38.48455 116.32152 10202 ft 349 kts 12°
2026-05-05 14:50 38.50804 116.32961 9831 ft 349 kts 12°
2026-05-05 14:50 38.53143 116.33768 9463 ft 348 kts 12°
2026-05-05 14:51 38.55498 116.34581 9093 ft 348 kts 12°
2026-05-05 14:51 38.57820 116.35382 8730 ft 348 kts 12°
2026-05-05 14:51 38.60169 116.36195 8360 ft 349 kts 12°
2026-05-05 14:51 38.62528 116.37011 7991 ft 350 kts 12°
2026-05-05 14:52 38.64869 116.37774 7626 ft 349 kts
2026-05-05 14:52 38.67268 116.38326 7258 ft 349 kts
2026-05-05 14:52 38.69660 116.38719 6894 ft 348 kts
2026-05-05 14:52 38.72067 116.39056 6528 ft 348 kts
2026-05-05 14:53 38.74480 116.39388 6162 ft 349 kts
2026-05-05 14:53 38.76906 116.39738 5795 ft 349 kts
2026-05-05 14:53 38.79317 116.40104 5430 ft 348 kts
2026-05-05 14:53 38.81728 116.40480 5063 ft 349 kts
2026-05-05 14:54 38.84120 116.40859 4698 ft 349 kts
2026-05-05 14:54 38.86561 116.41248 4326 ft 349 kts
2026-05-05 14:54 38.88969 116.41632 4068 ft 347 kts
2026-05-05 14:54 38.91361 116.42014 4042 ft 349 kts
2026-05-05 14:55 38.93789 116.42408 4035 ft 350 kts
2026-05-05 14:55 38.96179 116.43036 4035 ft 350 kts 13°
2026-05-05 14:55 38.98512 116.43920 4036 ft 352 kts 16°
2026-05-05 14:55 39.00928 116.44937 4035 ft 369 kts 17°
2026-05-05 14:56 39.03347 116.45950 4028 ft 371 kts 16°
2026-05-05 14:56 39.05842 116.46964 4027 ft 372 kts 16°
2026-05-05 14:56 39.08305 116.47936 4022 ft 371 kts 15°
2026-05-05 14:56 39.10760 116.48886 4018 ft 371 kts 15°
2026-05-05 14:57 39.13260 116.49844 4021 ft 371 kts 15°
2026-05-05 14:57 39.15740 116.50792 4023 ft 370 kts 15°
2026-05-05 14:57 39.18201 116.51733 4023 ft 370 kts 15°
2026-05-05 14:57 39.20678 116.52679 4019 ft 370 kts 15°
2026-05-05 14:58 39.23167 116.53632 4017 ft 372 kts 15°
2026-05-05 14:58 39.25634 116.54578 4017 ft 372 kts 15°
2026-05-05 14:58 39.28135 116.55538 4018 ft 371 kts 15°
2026-05-05 14:58 39.30611 116.56468 4016 ft 371 kts 13°
2026-05-05 14:59 39.33143 116.57053 4019 ft 370 kts
2026-05-05 14:59 39.35731 116.56996 4024 ft 368 kts 352°
2026-05-05 14:59 39.38248 116.56589 4020 ft 368 kts 348°
2026-05-05 14:59 39.40805 116.56059 4012 ft 367 kts 348°
2026-05-05 15:00 39.43331 116.55533 4020 ft 367 kts 348°
2026-05-05 15:00 39.45010 116.55209 4019 ft 368 kts 349°
2026-05-05 15:00 39.48379 116.54619 4019 ft 367 kts 350°
2026-05-05 15:00 39.50908 116.54210 4019 ft 368 kts 351°
2026-05-05 15:01 39.53493 116.53804 4019 ft 368 kts 351°
2026-05-05 15:01 39.56012 116.53413 4018 ft 366 kts 351°
2026-05-05 15:01 39.58494 116.53029 4013 ft 346 kts 351°
2026-05-05 15:01 39.60813 116.52673 4015 ft 325 kts 351°
2026-05-05 15:02 39.63000 116.52333 4016 ft 306 kts 350°
2026-05-05 15:02 39.65062 116.52009 4018 ft 289 kts 350°
2026-05-05 15:02 39.67012 116.51702 4014 ft 273 kts 350°
2026-05-05 15:02 39.68851 116.51411 4014 ft 258 kts 349°
2026-05-05 15:03 39.70607 116.51131 4018 ft 251 kts 349°
2026-05-05 15:03 39.72330 116.50854 4015 ft 251 kts 349°
2026-05-05 15:03 39.74086 116.50574 4010 ft 251 kts 349°
2026-05-05 15:03 39.75841 116.50295 4010 ft 251 kts 349°
2026-05-05 15:04 39.77535 116.49895 4005 ft 249 kts 339°
2026-05-05 15:04 39.79022 116.48806 4004 ft 241 kts 307°
2026-05-05 15:04 39.79769 116.46990 3998 ft 218 kts 277°
2026-05-05 15:04 39.79878 116.45142 4003 ft 197 kts 263°
2026-05-05 15:05 39.79592 116.41808 4025 ft 181 kts 258°
2026-05-05 15:05 39.79428 116.40166 4010 ft 182 kts 259°
2026-05-05 15:05 39.79272 116.38563 3999 ft 176 kts 257°
2026-05-05 15:06 39.78893 116.37110 4012 ft 164 kts 232°
2026-05-05 15:06 39.78062 116.36175 4006 ft 156 kts 208°
2026-05-05 15:06 39.77037 116.35719 4004 ft 159 kts 184°
2026-05-05 15:06 39.75918 116.35841 4009 ft 160 kts 177°
2026-05-05 15:07 39.74836 116.35988 3999 ft 150 kts 178°
2026-05-05 15:07 39.73817 116.36133 4021 ft 147 kts 177°
2026-05-05 15:07 39.72796 116.36289 4006 ft 146 kts 177°
2026-05-05 15:07 39.71776 116.36446 3994 ft 147 kts 177°
2026-05-05 15:08 39.70755 116.36605 3841 ft 148 kts 177°
2026-05-05 15:08 39.69737 116.36767 3580 ft 144 kts 177°
2026-05-05 15:08 39.68747 116.36924 3413 ft 143 kts 177°
2026-05-05 15:08 39.67757 116.37082 3203 ft 141 kts 176°
2026-05-05 15:09 39.66790 116.37237 3025 ft 140 kts 176°
2026-05-05 15:09 39.65812 116.37390 2824 ft 141 kts 176°
2026-05-05 15:09 39.64831 116.37548 2630 ft 141 kts 176°
2026-05-05 15:09 39.63860 116.37702 2439 ft 139 kts 176°
2026-05-05 15:10 39.62895 116.37855 2253 ft 139 kts 176°
2026-05-05 15:10 39.61929 116.38011 2069 ft 139 kts 175°
2026-05-05 15:10 39.60962 116.38163 1878 ft 138 kts 176°
2026-05-05 15:10 39.60005 116.38314 1691 ft 138 kts 175°
2026-05-05 15:11 39.59051 116.38467 1509 ft 139 kts 175°
2026-05-05 15:11 39.58089 116.38621 1327 ft 139 kts 175°
2026-05-05 15:11 39.57126 116.38773 1143 ft 140 kts 175°
2026-05-05 15:11 39.56151 116.38930 964 ft 140 kts 175°
2026-05-05 15:12 39.55177 116.39092 780 ft 141 kts 174°
2026-05-05 15:12 39.54198 116.39251 605 ft 141 kts 174°
2026-05-05 15:12 39.53228 116.39407 432 ft 142 kts 174°
2026-05-05 15:12 39.52233 116.39552 254 ft 143 kts 175°
2026-05-05 15:13 39.51252 116.39712 111 ft 142 kts 174°
2026-05-05 15:13 39.50311 116.39895 91 ft 117 kts 175°
2026-05-05 15:13 39.49720 116.39950 91 ft 54 kts 175°
2026-05-05 15:13 39.49402 116.39990 91 ft 42 kts 173°
2026-05-05 15:14 39.49200 116.40085 91 ft 21 kts 91°
2026-05-05 15:14 39.49217 116.40272 91 ft 20 kts 83°
2026-05-05 15:14 39.49245 116.40438 91 ft 16 kts 47°
2026-05-05 15:14 39.49351 116.40449 91 ft 16 kts 353°
2026-05-05 15:15 39.49488 116.40427 91 ft 23 kts 352°
2026-05-05 15:15 39.49670 116.40395 91 ft 29 kts 354°
2026-05-05 15:15 39.49876 116.40365 91 ft 27 kts 353°
2026-05-05 15:15 39.50058 116.40337 91 ft 24 kts 356°
2026-05-05 15:16 39.50135 116.40478 91 ft 22 kts 83°
2026-05-05 15:16 39.50155 116.40704 91 ft 28 kts 83°
2026-05-05 15:16 39.50207 116.40909 91 ft 20 kts 18°
2026-05-05 15:16 39.50290 116.40989 91 ft 9 kts 65°
2026-05-05 15:17 39.50308 116.41018 91 ft 1 kts 355°
2026-05-05 15:17 39.50338 116.41002 91 ft 7 kts 341°
2026-05-05 15:17 39.50404 116.41016 91 ft 11 kts 38°
2026-05-05 15:17 39.50423 116.41036 91 ft 0 kts 42°